Theta_e
316 315 314 314 314 316 314 313 313 313 314 313 313 313 312 312 312 311 311 310 310 311 313 317 319 320 314 303 304 317 327 328 324 322 315 312 308 303 298 300 301 296 298 302 304 304 302
314 314 315 316 313 312 313 313 312 312 312 312 312 311 311 311 311 311 310 310 310 310 312 315 318 319 308 295 313 318 320 323 322 319 316 315 310 306 301 300 299 300 301 301 302 302 302
313 314 314 312 312 313 313 313 312 311 311 311 311 310 310 310 310 310 310 310 310 310 312 314 316 314 304 300 310 316 318 317 319 319 313 315 314 306 304 299 303 301 296 298 299 300 300
312 315 312 312 312 312 312 311 311 311 310 310 310 310 310 310 309 309 310 310 309 310 311 312 315 312 299 312 311 310 309 309 312 317 318 319 317 308 304 303 300 296 295 290 297 299 300
314 312 312 311 312 312 311 311 310 310 310 309 309 309 309 309 309 309 309 309 310 310 311 312 307 307 296 315 307 310 308 307 310 314 315 320 315 307 304 296 291 292 286 289 293 300 299
311 312 312 312 312 311 310 310 309 309 309 309 308 308 308 308 308 308 309 309 309 308 307 308 308 299 302 300 307 309 308 308 308 311 310 310 307 301 300 295 286 287 286 287 289 294 295
311 311 310 311 311 310 310 309 309 309 308 308 308 308 308 307 308 308 305 299 293 294 298 298 299 299 301 307 309 307 307 305 308 305 297 304 297 293 297 298 294 292 292 292 291 295 290
311 311 310 310 310 310 309 309 309 308 308 308 307 307 307 308 308 308 303 294 294 297 288 299 301 302 305 306 299 304 308 302 299 296 299 298 293 297 299 299 296 293 291 288 290 293 290
309 309 310 310 310 309 309 309 308 308 308 307 307 307 307 308 308 302 299 296 302 301 289 294 300 300 302 304 298 299 305 303 298 295 292 292 294 299 298 296 295 291 286 285 287 290 288
309 308 310 310 310 309 308 308 308 308 307 306 306 307 307 308 302 301 297 302 303 302 283 288 294 301 303 303 296 304 308 303 298 294 294 292 295 295 294 293 290 286 291 290 288 285 279
308 308 310 309 309 308 308 308 307 307 306 306 306 307 308 308 301 297 301 304 304 297 267 291 295 308 303 298 298 299 306 302 294 295 294 289 292 291 289 291 293 288 292 289 287 283 280
307 308 308 309 308 307 308 308 307 307 307 308 308 308 308 305 302 302 305 303 297 280 271 289 296 295 295 296 297 299 300 302 302 296 294 291 296 293 292 293 292 293 288 286 285 280 272
307 308 307 308 308 307 307 307 307 307 308 309 309 309 307 306 298 305 304 297 276 274 286 285 290 294 292 291 293 295 294 290 288 286 285 291 290 293 294 289 292 289 282 272 270 269 272
307 307 308 308 307 307 307 307 307 308 309 310 309 308 304 305 305 302 297 284 273 282 286 293 292 292 289 292 292 293 291 287 291 288 284 281 277 289 292 289 286 286 283 274 270 271 274
306 308 308 308 306 307 307 307 307 309 310 308 305 302 301 302 303 299 290 275 279 284 290 291 291 288 288 290 291 291 290 287 289 288 281 278 280 292 292 293 290 285 279 285 276 275 270
307 307 307 307 306 307 306 307 306 310 310 308 296 297 298 305 302 297 286 283 284 288 294 293 285 288 284 287 287 288 288 290 289 291 290 287 279 290 293 294 294 287 289 276 272 266 268
307 306 306 306 305 304 305 306 305 308 310 306 293 292 297 303 300 291 282 286 287 293 295 291 287 286 287 286 287 287 287 290 291 290 292 289 284 284 292 286 284 287 284 282 280 277 272
306 306 305 304 304 305 306 305 305 306 309 301 289 283 297 303 286 290 286 288 289 291 296 294 290 290 288 288 286 286 285 287 293 292 288 291 284 274 284 287 289 287 284 282 272 271 274
305 305 305 304 304 304 305 305 305 305 307 301 287 290 300 300 285 284 291 290 290 294 294 293 289 290 291 287 284 286 288 293 294 293 289 289 280 272 278 283 286 283 286 285 283 283 271
305 305 304 304 303 302 302 303 304 304 306 297 287 279 290 295 294 289 286 288 290 296 294 293 290 292 291 287 289 288 287 292 296 296 299 294 283 278 275 277 281 277 284 285 284 279 276
304 305 304 304 303 302 301 301 303 304 305 302 292 285 289 284 291 292 292 292 291 290 294 294 292 292 291 287 288 287 289 289 293 296 293 288 278 279 282 285 282 282 283 284 279 284 277
303 305 304 303 303 302 301 301 302 304 304 296 290 290 293 291 294 289 290 289 290 291 292 290 290 292 291 289 287 287 288 287 287 289 288 288 276 279 278 285 284 281 284 285 285 286 286
303 304 304 303 303 302 301 301 301 303 301 294 297 299 295 290 289 286 287 289 291 292 294 295 294 292 291 292 293 292 292 292 291 288 286 286 280 277 274 282 282 279 284 286 286 287 288
302 304 304 303 303 301 301 301 301 301 301 297 297 296 292 286 287 288 291 292 292 292 291 294 296 293 296 298 297 296 295 292 291 289 290 285 283 280 274 279 273 289 293 293 288 290 293
302 303 303 303 303 302 301 300 300 300 301 297 298 296 293 287 288 290 292 292 292 293 294 294 296 297 298 296 290 286 286 289 288 290 292 292 289 281 275 276 282 289 293 292 289 289 293
302 303 304 301 302 302 301 300 300 300 300 297 297 301 296 291 287 294 292 292 290 290 291 294 298 299 297 292 288 283 282 285 285 288 293 293 292 284 279 277 277 287 291 295 294 285 294
302 302 304 301 302 302 301 300 299 300 299 297 296 300 295 292 296 294 289 290 295 293 291 295 296 294 295 289 284 281 282 287 282 284 286 287 287 282 282 279 283 290 292 297 284 288 294
302 302 303 301 301 301 300 300 299 299 299 297 295 300 294 293 295 299 301 296 295 295 292 293 293 293 291 286 284 284 283 285 284 286 286 285 284 283 284 281 277 294 294 291 293 294 293
302 301 303 301 301 301 300 301 300 300 298 299 293 299 300 292 295 299 301 304 302 302 297 293 294 291 294 289 286 288 288 286 284 281 288 285 286 285 286 285 291 292 296 298 295 292 291
Wind_Speed
19 21 20 19 19 20 21 24 24 24 23 22 19 18 16 20 19 19 18 16 19 15 19 17 20 11 5 4 9 5 7 20 13 9 9 6 5 5 5 7 4 3 3 5 7 8 4
19 21 21 21 23 25 24 22 22 22 22 22 22 20 19 17 16 17 17 18 18 16 18 18 18 9 4 7 6 5 2 14 11 9 6 7 7 7 4 3 8 2 6 5 4 4 4
19 18 20 23 24 23 23 23 23 23 22 21 21 19 19 19 16 16 16 17 17 14 17 18 17 10 7 14 4 5 4 5 7 10 6 5 3 4 5 1 5 3 4 3 5 4 4
18 19 22 20 23 24 23 22 22 22 22 22 20 18 17 17 14 15 16 16 15 17 17 19 15 8 6 8 10 7 3 3 5 6 7 6 3 1 3 2 3 5 4 0 4 2 6
18 20 20 23 23 23 23 22 21 21 21 19 17 17 17 17 15 15 14 15 18 18 17 15 6 6 6 5 6 7 5 4 5 6 9 7 5 1 2 6 3 1 2 4 7 8 7
20 21 20 22 22 22 22 22 22 21 20 21 16 16 17 16 13 12 14 17 19 14 7 6 6 3 5 6 7 8 6 4 3 7 8 4 4 3 3 4 6 6 4 3 5 4 1
20 21 22 21 22 22 22 22 21 22 22 19 19 17 18 15 13 12 8 5 5 2 2 4 6 3 4 4 8 9 5 5 4 3 5 5 3 5 8 4 3 4 1 2 4 3 5
21 21 20 22 22 23 22 22 21 20 21 21 20 18 16 16 16 11 3 2 3 3 6 8 6 12 6 7 9 12 9 7 5 5 4 3 2 8 14 11 7 2 3 4 6 1 3
21 20 21 23 23 23 22 22 21 21 19 21 20 17 17 15 15 6 3 5 5 3 2 4 9 14 4 5 4 13 9 6 6 7 4 5 3 6 6 7 7 4 4 2 5 5 1
20 20 22 23 23 22 22 22 24 21 20 20 19 18 18 19 10 2 2 4 5 2 2 4 8 5 4 5 4 5 6 6 4 8 7 4 1 6 7 2 3 2 3 2 2 4 4
20 21 23 23 22 23 22 22 24 23 22 20 19 19 20 17 5 3 2 5 4 2 5 9 5 1 5 0 14 7 2 2 6 7 5 4 5 6 4 4 5 4 5 4 2 3 4
20 21 23 24 23 22 23 24 24 25 25 24 21 20 20 6 1 3 8 5 2 2 2 6 7 10 9 7 2 6 2 3 4 6 5 3 2 3 6 4 4 7 5 7 4 3 3
20 22 22 23 23 24 24 25 26 27 28 27 24 21 16 3 1 7 7 2 4 2 2 5 9 17 14 5 6 7 6 3 5 6 4 2 2 2 4 7 3 5 6 3 5 3 7
19 20 21 23 24 24 25 26 27 29 31 25 14 7 4 3 4 7 4 2 1 6 5 8 13 14 7 10 7 8 7 4 2 5 5 5 2 6 3 5 6 3 6 6 5 2 5
19 20 22 22 24 25 25 27 28 29 28 19 12 3 4 6 4 4 1 3 3 4 5 11 15 6 5 5 7 6 6 6 4 3 6 5 2 2 5 4 7 3 2 4 4 3 4
19 20 21 22 23 25 26 27 28 28 28 13 3 3 4 5 6 4 1 5 4 3 9 9 4 2 5 5 7 5 9 6 3 6 1 5 4 2 2 5 2 5 6 4 3 1 4
19 20 20 22 23 24 25 27 28 28 28 8 4 3 3 5 2 2 3 5 5 8 2 2 4 5 8 7 8 5 9 1 7 4 4 1 5 2 4 4 6 4 2 2 4 4 4
17 18 20 21 22 23 24 26 28 28 26 6 3 4 3 3 3 1 2 2 3 5 5 5 5 10 5 5 4 4 8 3 7 6 5 1 5 3 7 2 3 4 5 6 5 4 2
16 17 18 20 21 23 24 27 27 27 25 3 2 1 1 2 3 3 5 5 3 4 5 4 4 3 5 6 6 3 5 4 9 8 8 4 2 3 4 6 3 4 5 5 4 2 6
16 16 17 18 20 22 24 26 28 28 27 2 3 3 3 2 1 2 2 2 3 5 5 5 6 10 5 3 3 4 3 5 3 3 9 7 3 5 6 6 3 3 5 7 8 4 3
15 15 15 17 19 21 22 24 26 27 26 2 4 2 0 3 3 2 3 5 7 7 7 7 7 4 4 4 6 4 3 3 6 4 4 5 3 3 5 6 2 6 5 7 9 17 7
14 15 14 15 17 19 21 22 25 25 23 4 2 3 3 3 4 4 5 6 7 6 5 4 6 3 8 4 1 6 6 3 4 1 4 2 1 3 5 4 7 7 10 11 13 16 18
13 16 13 14 14 16 18 20 21 23 14 3 3 2 2 5 2 2 2 4 5 2 7 6 5 7 10 5 3 4 4 6 7 7 3 4 4 3 5 3 4 6 11 13 7 6 9
12 16 12 12 13 13 15 17 17 18 13 1 2 2 2 3 2 2 3 2 5 4 4 4 7 5 1 3 2 6 9 8 6 4 4 5 5 3 4 3 1 5 0 6 11 9 12
11 15 12 12 12 11 12 14 15 15 15 0 3 3 2 3 2 5 3 4 4 5 4 4 4 0 2 2 4 4 3 2 1 1 3 4 3 1 1 2 6 5 3 3 5 9 5
12 14 14 12 13 10 11 13 13 13 14 3 2 2 2 3 4 4 2 5 3 2 2 2 0 2 4 2 2 3 3 2 4 3 3 3 3 3 2 2 2 3 0 3 4 5 4
13 14 15 11 13 11 11 11 13 12 12 4 3 2 3 2 4 3 1 3 3 3 3 1 0 2 3 2 2 3 2 2 5 7 5 4 3 5 5 2 7 9 4 4 3 4 3
13 14 15 10 13 11 12 12 12 10 10 4 3 2 2 3 5 3 4 3 3 2 3 2 2 2 1 2 2 2 1 2 1 5 6 7 6 4 3 3 8 4 3 2 4 4 3
15 15 16 11 14 11 12 12 13 10 9 6 1 2 2 3 4 3 6 6 4 1 5 2 0 2 2 3 0 2 1 1 1 3 2 5 7 4 7 7 5 4 4 2 1 3 3
Wind_Direction
343 346 343 334 325 331 336 331 330 334 326 323 319 313 312 310 312 308 309 307 301 294 301 305 300 186 146 218 245 271 300 182 196 146 175 168 161 167 188 178 240 214 259 236 247 266 236
342 344 338 343 343 334 336 336 329 328 326 322 321 320 312 306 306 311 306 303 300 294 297 296 297 186 151 227 241 242 273 173 171 157 175 160 187 200 203 198 170 205 221 240 261 239 234
339 338 349 343 332 339 333 329 329 329 327 323 320 321 313 310 317 306 305 304 297 296 292 290 294 202 194 221 286 166 152 161 165 181 167 190 175 193 186 163 191 162 174 283 232 227 244
337 346 346 335 327 337 333 333 330 327 324 326 325 320 313 310 314 304 303 302 297 289 284 285 286 225 232 218 251 304 135 164 193 187 200 183 125 301 179 166 112 131 65 52 265 274 243
344 344 337 334 339 335 334 340 335 331 330 325 329 322 321 321 313 308 301 298 291 281 278 279 289 189 231 165 190 217 189 189 170 169 188 100 120 206 112 127 63 11 190 213 305 219 227
344 337 340 340 339 335 339 336 335 334 335 329 333 325 320 313 329 324 313 307 282 279 278 239 254 123 257 196 163 176 192 196 162 152 119 126 144 173 133 148 190 202 190 223 238 327 273
342 337 344 344 340 340 341 335 336 334 332 327 322 320 315 320 318 317 328 338 10 21 265 213 150 219 181 157 125 173 162 139 111 140 149 167 138 170 166 222 123 145 141 287 273 291 334
340 343 344 343 337 337 338 336 335 333 328 327 326 323 318 316 315 304 319 248 212 180 313 244 264 230 241 156 145 171 149 153 146 151 125 129 183 178 188 214 211 236 326 297 283 251 276
346 341 344 339 338 337 340 335 337 333 331 324 324 319 316 314 321 322 220 234 157 217 298 240 233 218 172 114 119 163 169 133 146 143 146 134 159 155 162 169 209 165 167 239 263 319 349
346 343 344 343 340 340 338 342 333 338 330 333 323 319 317 320 306 212 278 201 159 125 118 221 201 203 173 149 69 113 182 134 151 161 129 160 210 163 151 141 121 133 81 133 44 40 266
346 343 342 344 345 342 341 339 338 338 333 328 320 313 311 316 284 210 114 148 131 53 111 154 150 304 115 321 140 191 42 42 145 134 117 199 165 121 119 164 146 171 122 99 66 40 0
347 347 340 347 342 343 345 341 341 336 330 323 314 306 311 296 208 193 143 136 40 167 225 165 124 181 122 133 39 113 107 33 113 93 59 112 132 108 154 89 119 144 75 42 49 62 334
349 348 348 352 347 350 346 345 341 339 329 316 300 298 306 268 13 136 132 110 66 254 302 175 154 142 131 123 120 140 154 118 133 130 122 73 49 102 101 93 66 93 70 353 355 355 230
348 348 345 350 354 351 349 347 346 342 336 341 355 15 342 345 104 101 68 35 115 255 228 146 133 132 104 125 132 135 136 117 34 79 118 141 287 171 193 152 170 170 136 158 224 227 287
344 349 348 356 356 352 351 349 351 347 349 4 18 18 26 6 54 64 332 11 289 337 323 128 115 99 110 77 125 127 182 159 196 154 131 125 269 174 160 133 125 198 145 189 99 17 31
345 352 354 357 358 358 353 353 353 354 355 10 40 35 19 341 346 54 350 328 278 285 123 116 85 61 112 120 119 137 166 185 206 181 127 191 92 137 110 88 109 134 153 63 355 221 274
346 354 356 360 360 356 352 355 356 357 355 6 47 60 282 325 74 37 353 336 317 331 168 108 133 126 118 123 124 146 175 304 177 178 174 112 99 295 113 184 175 151 189 121 121 165 204
343 358 358 359 356 356 356 358 356 358 353 47 88 63 283 356 61 234 309 336 336 296 274 287 82 103 92 95 119 134 189 254 183 146 163 34 105 149 199 288 184 166 184 149 127 267 245
342 357 358 357 360 2 359 355 357 356 358 330 53 277 341 31 36 343 343 321 267 256 240 139 109 120 139 124 139 143 132 328 173 157 161 168 30 60 18 2 15 191 196 168 118 117 206
340 352 356 358 358 359 358 355 353 355 352 74 72 27 333 13 225 304 304 292 283 227 282 92 104 122 99 102 55 120 98 32 104 128 142 94 141 159 182 203 143 186 187 187 181 204 209
333 345 353 356 0 0 2 357 355 355 351 66 16 327 303 328 315 336 252 332 32 16 19 35 84 107 117 118 114 104 98 80 35 62 69 100 166 148 243 249 178 201 206 195 195 234 240
329 338 348 355 359 360 2 3 356 360 354 71 30 354 329 285 294 2 358 351 13 360 32 37 95 54 78 76 233 160 128 126 180 51 94 53 177 87 297 258 212 247 240 227 237 248 258
330 328 345 352 358 1 2 3 1 1 13 1 329 308 297 282 279 27 314 332 355 20 37 41 108 78 55 18 24 85 116 154 155 138 118 116 114 72 277 301 321 280 227 200 202 210 214
333 321 339 347 349 2 358 0 3 359 13 320 300 294 303 288 359 285 1 79 35 13 98 21 38 79 352 107 93 46 52 59 82 50 117 128 123 130 252 1 243 258 317 204 208 238 220
332 320 333 343 340 356 355 355 356 355 352 314 288 286 309 282 268 297 129 110 63 33 63 63 29 212 299 51 77 64 17 61 90 141 141 126 127 269 186 232 272 257 222 171 181 284 224
325 319 325 338 332 350 349 346 347 349 348 345 286 304 288 303 257 280 199 162 146 116 72 85 266 357 56 88 87 183 181 169 151 127 133 95 131 149 302 271 264 254 79 109 126 290 224
316 317 320 333 327 338 338 339 336 346 341 336 277 6 279 264 271 333 231 177 123 100 113 62 141 45 46 75 130 190 233 143 162 174 165 170 179 217 229 281 285 253 277 156 39 269 239
319 312 319 323 320 330 334 327 324 327 333 344 296 234 319 299 284 301 308 33 54 132 141 186 86 319 93 121 142 206 199 248 173 168 174 183 183 194 160 215 264 191 97 237 234 307 299
309 310 317 326 320 325 322 312 317 321 316 314 250 330 296 245 282 315 289 281 284 234 124 142 279 166 191 88 199 99 238 8 188 244 193 209 192 183 194 211 241 283 250 261 298 262 275